Location: Banksville Park
(38.5557°N, 75.1182°W)
Time: 15:30:21
(UTC+00:00)

ATLAS 3B R/B - Pass Details

Date: 19 September 2020
Orbit: 1016 x 1179 km, 63.8° (Epoch: 04 October)

Event Time Altitude Azimuth Distance (km) Brightness Sun altitude
Rises 02:45:28 0° 330° (NNW) 3,845 6.4 -40.3°
Reaches altitude 10° 02:48:08 10° 334° (NNW) 2,909 5.6 -40.7°
Enters shadow 02:51:46 33° 347° (NNW) 1,746 4.1 -41.2°
